{"data":{"norad_id":55333,"intl_designator":"2023-013C","name":"STARLINK-5493","alt_names":[],"object_type":"PAYLOAD","status":"ACTIVE","operator":null,"country":"US","launch_date":"2023-01-26","launch_site_code":"AFETR","launch_vehicle":null,"mission":null,"orbit_class":"UNKNOWN","rcs_meters":null,"size_class":null,"mass_kg":null,"dimensions":null,"purposes":["comms"],"wikipedia_slug":null,"has_3d_model":false,"image_url":null,"decayed_at":null,"tle_current":{"epoch":"2026-05-24T22:41:40.615008Z","epoch_age_seconds":73740,"freshness":"FRESH","line1":"1 55333U 23013C   26144.94560897  .00021712  00000+0  81243-3 0  9996","line2":"2 55333  43.0004 232.9404 0000904 232.8952 127.1817 15.26913582183337","mean_motion":15.26913582,"eccentricity":9.04e-5,"inclination_deg":43.0004,"raan_deg":232.9404,"arg_perigee_deg":232.8952,"mean_anomaly_deg":127.1817,"bstar":0.00081243,"rev_number":18333,"period_min":94.307891224194,"perigee_km":484.42488533213,"apogee_km":485.66574869505,"semimajor_km":6863.1823170136,"source":"CELESTRAK","updated_at":"2026-05-25T13:38:17.759772Z"}}}